| time (UTC) | temp F | wind direction | speed MPH | gust MPH | rain 1hr in | rain 24hr in | rain mn in | humidity % | barometer mb |
| 20260502152045 | 54 | 207 | 2.0 | 6.0 | 0.00 | 0.07 | 0.06 | 51 | 1011.7 |
| 20260502150526 | 55 | 166 | 2.0 | 5.0 | 0.00 | 0.07 | 0.06 | 56 | 1011.8 |
| 20260502130552 | 49 | 353 | 4.0 | 6.0 | 0.00 | 0.07 | 0.06 | 70 | 1011.9 |
| 20260502123545 | 47 | 261 | 1.0 | 5.0 | 0.00 | 0.07 | 0.06 | 76 | 1012.1 |
| 20260502122041 | 46 | 328 | 1.0 | 6.0 | 0.00 | 0.07 | 0.06 | 78 | 1012.1 |
| 20260502120539 | 45 | 309 | 0.0 | 5.0 | 0.00 | 0.07 | 0.06 | 84 | 1012.0 |
| 20260502115051 | 44 | 114 | 0.0 | 1.0 | 0.00 | 0.07 | 0.06 | 87 | 1012.0 |
| 20260502113553 | 44 | 97 | 0.0 | 1.0 | 0.00 | 0.07 | 0.06 | 87 | 1012.0 |
| 20260502112105 | 43 | 90 | 1.0 | 3.0 | 0.00 | 0.07 | 0.06 | 87 | 1012.2 |
| 20260502110541 | 44 | 107 | 2.0 | 4.0 | 0.00 | 0.07 | 0.06 | 88 | 1012.1 |
| 20260502105035 | 44 | 229 | 1.0 | 6.0 | 0.00 | 0.07 | 0.06 | 90 | 1011.6 |
| 20260502103535 | 45 | 55 | 0.0 | 3.0 | 0.00 | 0.07 | 0.06 | 93 | 1011.5 |
| 20260502102032 | 45 | 168 | 1.0 | 4.0 | 0.00 | 0.07 | 0.06 | 93 | 1011.3 |
| 20260502100533 | 45 | 90 | 2.0 | 3.0 | 0.00 | 0.07 | 0.06 | 94 | 1011.0 |
| 20260502090537 | 45 | 55 | 0.0 | 0.0 | 0.00 | 0.07 | 0.06 | 91 | 1010.1 |
| 20260502070526 | 48 | 55 | 0.0 | 1.0 | 0.04 | 0.05 | 0.04 | 90 | 1010.6 |
| 20260502065041 | 48 | 55 | 0.0 | 0.0 | 0.03 | 0.04 | 0.03 | 90 | 1011.0 |
| 20260502063538 | 48 | 55 | 0.0 | 0.0 | 0.01 | 0.02 | 0.01 | 90 | 1011.0 |
| 20260502062101 | 48 | 55 | 0.0 | 1.0 | 0.01 | 0.02 | 0.01 | 89 | 1011.0 |
| 20260502060538 | 48 | 56 | 0.0 | 0.0 | 0.00 | 0.01 | 0.00 | 90 | 1011.3 |
| 20260502055032 | 49 | 56 | 0.0 | 0.0 | 0.00 | 0.01 | 0.00 | 90 | 1011.4 |
| 20260502053533 | 49 | 335 | 0.0 | 2.0 | 0.00 | 0.01 | 0.00 | 91 | 1011.7 |
| 20260502052031 | 49 | 22 | 1.0 | 2.0 | 0.00 | 0.01 | 0.00 | 90 | 1011.5 |
| 20260502050531 | 49 | 237 | 0.0 | 0.0 | 0.00 | 0.01 | 0.00 | 90 | 1011.6 |
| 20260502045039 | 49 | 237 | 0.0 | 2.0 | 0.01 | 0.01 | 0.00 | 89 | 1011.5 |
| 20260502043535 | 49 | 237 | 0.0 | 0.0 | 0.01 | 0.01 | 0.00 | 89 | 1011.2 |
| 20260502042028 | 49 | 237 | 0.0 | 0.0 | 0.01 | 0.01 | 0.00 | 88 | 1010.9 |
| 20260502040529 | 49 | 237 | 0.0 | 1.0 | 0.01 | 0.01 | 0.00 | 87 | 1011.0 |
| 20260502035038 | 50 | 178 | 0.0 | 0.0 | 0.00 | 0.00 | 0.00 | 86 | 1011.3 |
| 20260502033536 | 50 | 178 | 0.0 | 0.0 | 0.00 | 0.00 | 0.00 | 84 | 1010.7 |
| 20260502032035 | 50 | 178 | 0.0 | 0.0 | 0.00 | 0.00 | 0.00 | 83 | 1010.7 |
| 20260502030535 | 50 | 167 | 0.0 | 0.0 | 0.00 | 0.00 | 0.00 | 82 | 1010.6 |
| 20260502025029 | 50 | 167 | 0.0 | 0.0 | 0.00 | 0.01 | 0.00 | 81 | 1010.6 |
| 20260502023556 | 50 | 167 | 0.0 | 0.0 | 0.00 | 0.01 | 0.00 | 80 | 1010.9 |
| 20260502022050 | 51 | 167 | 0.0 | 0.0 | 0.00 | 0.01 | 0.00 | 79 | 1011.0 |
| 20260502020547 | 52 | 167 | 0.0 | 0.0 | 0.00 | 0.01 | 0.00 | 78 | 1011.2 |
| 20260502015040 | 53 | 167 | 0.0 | 0.0 | 0.00 | 0.01 | 0.00 | 76 | 1010.9 |
| 20260502013539 | 54 | 167 | 0.0 | 0.0 | 0.00 | 0.01 | 0.00 | 73 | 1010.9 |
| 20260502012035 | 54 | 167 | 0.0 | 0.0 | 0.00 | 0.01 | 0.00 | 71 | 1010.8 |
| 20260502010539 | 55 | 167 | 0.0 | 1.0 | 0.00 | 0.01 | 0.00 | 67 | 1010.8 |
| 20260502005039 | 55 | 165 | 2.0 | 4.0 | 0.00 | 0.02 | 0.00 | 61 | 1010.6 |
| 20260502002032 | 56 | 141 | 2.0 | 4.0 | 0.00 | 0.02 | 0.00 | 61 | 1010.6 |
| 20260502000535 | 56 | 221 | 2.0 | 4.0 | 0.00 | 0.02 | 0.00 | 61 | 1010.1 |
| 20260501235111 | 57 | 236 | 0.0 | 1.0 | 0.00 | 0.04 | 0.00 | 61 | 1009.8 |
| 20260501233600 | 58 | 271 | 0.0 | 0.0 | 0.00 | 0.04 | 0.00 | 59 | 1009.3 |
| 20260501232037 | 59 | 272 | 0.0 | 1.0 | 0.00 | 0.04 | 0.00 | 55 | 1009.0 |
| 20260501230538 | 59 | 218 | 1.0 | 5.0 | 0.00 | 0.04 | 0.00 | 52 | 1009.1 |
| 20260501225051 | 59 | 251 | 0.0 | 3.0 | 0.00 | 0.04 | 0.00 | 53 | 1009.1 |
| 20260501223527 | 59 | 45 | 1.0 | 9.0 | 0.00 | 0.04 | 0.00 | 52 | 1009.3 |
| 20260501222057 | 60 | 245 | 2.0 | 5.0 | 0.00 | 0.04 | 0.00 | 53 | 1009.2 |
| 20260501220538 | 60 | 318 | 2.0 | 6.0 | 0.00 | 0.04 | 0.00 | 49 | 1009.2 |
| 20260501215036 | 61 | 232 | 1.0 | 8.0 | 0.00 | 0.04 | 0.00 | 50 | 1009.1 |
| 20260501213554 | 61 | 248 | 3.0 | 7.0 | 0.00 | 0.04 | 0.00 | 48 | 1009.1 |
| 20260501212050 | 61 | 282 | 4.0 | 8.0 | 0.00 | 0.04 | 0.00 | 50 | 1009.1 |
| 20260501210541 | 62 | 28 | 2.0 | 5.0 | 0.00 | 0.04 | 0.00 | 46 | 1008.9 |
| 20260501205029 | 62 | 256 | 3.0 | 7.0 | 0.00 | 0.04 | 0.00 | 45 | 1009.0 |
| 20260501203548 | 62 | 30 | 2.0 | 8.0 | 0.00 | 0.04 | 0.00 | 47 | 1008.9 |
| 20260501202105 | 61 | 101 | 1.0 | 5.0 | 0.00 | 0.04 | 0.00 | 44 | 1009.0 |
| 20260501200543 | 62 | 35 | 2.0 | 5.0 | 0.00 | 0.04 | 0.00 | 45 | 1009.1 |
| 20260501195034 | 63 | 331 | 3.0 | 8.0 | 0.00 | 0.04 | 0.00 | 43 | 1009.1 |
| 20260501193536 | 63 | 188 | 2.0 | 8.0 | 0.00 | 0.04 | 0.00 | 43 | 1009.2 |
| 20260501192032 | 62 | 284 | 2.0 | 7.0 | 0.00 | 0.04 | 0.00 | 41 | 1009.4 |
| 20260501190539 | 62 | 132 | 2.0 | 6.0 | 0.00 | 0.04 | 0.00 | 43 | 1009.4 |
| 20260501185028 | 61 | 50 | 1.0 | 5.0 | 0.00 | 0.04 | 0.00 | 44 | 1009.7 |
| 20260501183527 | 61 | 264 | 3.0 | 10.0 | 0.00 | 0.04 | 0.00 | 43 | 1009.8 |
| 20260501182044 | 62 | 269 | 1.0 | 10.0 | 0.00 | 0.04 | 0.00 | 40 | 1010.0 |
| 20260501180551 | 62 | 181 | 3.0 | 5.0 | 0.00 | 0.04 | 0.00 | 42 | 1010.1 |
| 20260501175033 | 61 | 220 | 2.0 | 10.0 | 0.00 | 0.04 | 0.00 | 46 | 1010.1 |
| 20260501173529 | 61 | 359 | 4.0 | 13.0 | 0.00 | 0.04 | 0.00 | 44 | 1010.2 |
| 20260501172056 | 60 | 283 | 1.0 | 10.0 | 0.00 | 0.04 | 0.00 | 44 | 1010.4 |
| 20260501170535 | 60 | 226 | 3.0 | 6.0 | 0.00 | 0.04 | 0.00 | 44 | 1010.6 |
| 20260501165029 | 59 | 70 | 1.0 | 4.0 | 0.00 | 0.04 | 0.00 | 51 | 1010.8 |
| 20260501163530 | 59 | 102 | 2.0 | 8.0 | 0.00 | 0.04 | 0.00 | 51 | 1011.0 |
| 20260501162027 | 58 | 146 | 3.0 | 9.0 | 0.00 | 0.04 | 0.00 | 52 | 1011.1 |
| 20260501160534 | 57 | 265 | 3.0 | 7.0 | 0.00 | 0.04 | 0.00 | 53 | 1011.5 |
| 20260501153531 | 57 | 183 | 2.0 | 5.0 | 0.00 | 0.04 | 0.00 | 52 | 1012.1 |